MyTimes logo

TIMES

Webb Imagery

9/04/2000
Brighton Bay Victorian Fun Roller Blade Championship
10km Roller Blade

(Click on competitor name to view personalised results)

Name
Race #
Category
Time
(h:mm:ss)
Avg Speed
km/hr
OAll
Place
Cat
Place
KASO N#1655Junior Male Blader0:18:10 33 11
EATON M#651Adult Male Blader0:18:10 33 21
WILLIAMS E#1033Adult Male Blader0:18:17 32.8 32
ORAM D#1032Adult Male Blader0:19:09 31.3 43
STANNAGE T#1043Adult Male Blader0:19:12 31.3 54
FINSTER A#1650Adult Male Blader0:20:01 30 65
WALKLING L#1076Adult Male Blader0:20:26 29.4 76
GEE D#1615Adult Male Blader0:21:18 28.2 87
PETERS L#1520Adult Male Blader0:21:26 28 98
CURTIS R#1034Adult Male Blader0:22:07 27.1 109
BEDNORZ M#1037Adult Male Blader0:23:17 25.8 1110
NORTH-COOMBES C#1040Adult Male Blader0:23:40 25.4 1211
FRASER C#1025Adult Female Blader0:23:49 25.2 131
GARRETT T#1069Adult Male Blader0:24:09 24.8 1412
MCCLURE L#1054Adult Male Blader0:25:08 23.9 1513
PEDERSEN D#1067Adult Male Blader0:25:16 23.7 1614
GARRIGA P#1087Adult Male Blader0:25:51 23.2 1715
CHEUNG T#1072Adult Female Blader0:25:59 23.1 182
CARGNELLO J#1630Adult Male Blader0:26:10 22.9 1916
SHIPLEY N#1019Adult Male Blader0:26:16 22.8 2017
BOHNKE M#1101Junior Male Blader0:26:46 22.4 212
MACKENZIE J#1575Adult Male Blader0:26:49 22.4 2218
TARRANT B#1074Adult Male Blader0:27:11 22.1 2319
ROUSE R#1026Adult Male Blader0:27:45 21.6 2420
GALAZAR F#1580Adult Male Blader0:28:43 20.9 2521
JORTIKKA L#1044Adult Male Blader0:29:00 20.7 2622
JOHNS D#1024Junior Male Blader0:29:12 20.5 273
LAU J#1045Adult Male Blader0:29:15 20.5 2823
WOOLLEY S#1007Adult Male Blader0:29:28 20.4 2924
ANTRIM S#1064Adult Female Blader0:29:39 20.2 303
SKOLSKY S#1093Junior Male Blader0:29:41 20.2 314
SKOLSKY S#1094Adult Male Blader0:30:02 20 3225
FRASER G#1003Adult Male Blader0:30:02 20 3326
THOMAS D#1515Adult Male Blader0:31:08 19.3 3427
BERMINGHAM G#1070Adult Male Blader0:31:35 19 3528
KEEGAN H#1060Junior Female Blader0:31:58 18.8 361
SHAEHAN L#1036Adult Female Blader0:32:30 18.5 374
DELCOURT C#1016Junior Female Blader0:32:35 18.4 382
LANE T#1512Junior Male Blader0:32:56 18.2 395
MERRYLEES P#1001Adult Male Blader0:33:00 18.2 4029
AINSWORTH J#1011Adult Female Blader0:33:14 18.1 415
GELLIE A#1526Adult Male Blader0:33:15 18 4230
WHITELEY L#1521Adult Female Blader0:33:20 18 436
VANDYK S#1541Junior Female Blader0:33:30 17.9 443
HELLYER A#1560Adult Female Blader0:34:20 17.5 457
MARKSJO B#1049Adult Female Blader0:34:47 17.2 468
PEACOCK A#1031Adult Female Blader0:35:18 17 479
CRUICKSHANK L#1057Adult Female Blader0:35:29 16.9 4810
RANGER T#1058Junior Female Blader0:35:30 16.9 494
CAMPBELL J#1084Adult Male Blader0:36:13 16.6 5031
HONEY S#1002Adult Female Blader0:36:16 16.5 5111
KEEN M#1000Adult Female Blader0:36:26 16.5 5212
CANE T#1522Adult Male Blader0:36:26 16.5 5332
WEIR A#1066Adult Female Blader0:36:35 16.4 5413
HUNNICUTT M#1090Adult Female Blader0:36:35 16.4 5514
JOHNS M#1023Junior Male Blader0:37:58 15.8 566
MCFARLANE S#1086Adult Female Blader0:38:37 15.5 5715
ABBOTT B#1085Adult Female Blader0:38:37 15.5 5816
BAIN G#2654Adult Male Blader0:38:47 15.5 5933
LANE P#1507Adult Male Blader0:39:12 15.3 6034
LANE J#1502Adult Female Blader0:39:12 15.3 6117
WALLACE D#1014Adult Male Blader0:40:22 14.9 6235
LAMB C#1013Adult Female Blader0:40:22 14.9 6318
MARKOVIC A#1091Adult Female Blader0:40:30 14.8 6419
CROWLE G#1015Adult Female Blader0:40:33 14.8 6520
MCGEARY R#1625Adult Male Blader0:40:51 14.7 6636
KAPITANY B#1028Junior Male Blader0:42:03 14.3 677
KAPITANY A#1029Adult Male Blader0:43:19 13.9 6837
KAPITANY M#1030Adult Female Blader0:43:53 13.7 6921
KEEGAN J#1062Junior Female Blader0:44:27 13.5 705
PRSA N#1047Adult Female Blader0:44:32 13.5 7122
KEEGAN J#1061Adult Male Blader0:45:05 13.3 7238
KEEGAN N#1063Junior Female Blader0:45:05 13.3 736
RANGER M#1059Junior Female Blader0:45:19 13.2 747
RANGER D#1056Adult Male Blader0:45:34 13.2 7539
DONALDSON N#1051Junior Male Blader0:46:12 13 768
DONALDSON S#1053Junior Male Blader0:46:13 13 779
DONALDSON J#1052Adult Female Blader0:46:21 12.9 7823
DONALDSON D#1050Adult Male Blader0:46:21 12.9 7940
JANSON C#1038Adult Male Blader0:48:17 12.4 8041
CORNISH A#1009Adult Male Blader0:48:24 12.4 8142
RAMUS A#1008Adult Female Blader0:48:36 12.3 8224
LAUGHTON C#1005Adult Male Blader0:49:25 12.1 8343
RICHARDS S#1004Adult Female Blader0:49:49 12 8425
FRY D#1041Adult Male Blader0:50:15 11.9 8544
SIMO D#1080Adult Male Blader0:53:02 11.3 8645
EVEN-CHAIM R#1082Adult Male Blader0:54:04 11.1 8746
KAMARINOS M#1083Adult Female Blader0:54:05 11.1 8826
BETHUNE T#1075Junior Male Blader1:10:10 8.6 8910
STUART J#1092Adult Female Blader1:10:23 8.5 9027